Location: Corte Bragagnani
(45.3000°N, 11.1000°E)
Time: 08:24:14
(UTC+00:00)

Cosmos 1300 - Pass Details

Date: 09 April 2020
Orbit: 511 x 515 km, 82.5° (Epoch: 25 May)

Event Time Altitude Azimuth Distance (km) Brightness Sun altitude
Exits shadow 18:42:49 - 143° (SE) 1,894 5.0 -9.0°
Reaches altitude 10° 18:43:17 10° 139° (SE) 1,737 4.8 -9.1°
Maximum altitude 18:46:14 22° 89° (E) 1,179 4.0 -9.6°
Drops below altitude 10° 18:49:12 10° 38° (NE) 1,751 5.2 -10.0°
Sets 18:51:41 0° 23° (NNE) 2,644 6.3 -10.4°
